sat.trackr.live / text

‹ back to catalog

STARLINK-30186

NORAD 57470 · 2023-107P

PAYLOAD ACTIVE UNKNOWN

§ Identity

Operator
Country
US
Launch date
2023-07-28
Launch site
AFETR
Launch vehicle
Mass (kg)
RCS (m²)

Purposes: comms

External: N2YO · Heavens-Above · Gunter

§ Orbital elements

Epoch: 2026-09-20T03:40:35.184864Z

Period
91.77 min
Inclination
42.9982°
Eccentricity
0.0003718
Mean motion
15.69057776 rev/d
Perigee alt
359.1 km
Apogee alt
364.1 km
Semi-major
6,739.7 km
B*
5.9123e-4
RAAN
299.7140°
Arg perigee
61.7254°
Mean anomaly
298.3988°
Rev number
17,509

§ Raw data

STARLINK-301861 57470U 23107P   26263.15318501  .00070614  00000+0  59123-3 0  99992 57470  42.9982 299.7140 0003718  61.7254 298.3988 15.69057776175097

JSON: /api/v1/satellites/57470 · /tle

For live sub-satellite position, see the globe view (requires WebGL).

§ Visibility from observer

Set your observer location to see the next 7 days of passes ≥ 10°. The values pass through the URL so the page stays shareable.

No JS? Fill the form by hand. The geolocation button needs JavaScript.